Satellite: NOAA-12
Catalog number: 21263
Epoch time: 12004.94014972
Element set: 0272
Inclination: 098.7405 deg
RA of node: 027.2824 deg
Eccentricity: 0.0013326
Arg of perigee: 321.6242 deg
Mean anomaly: 038.3988 deg
Mean motion: 14.25469927 rev/day
Decay rate: 1.25e-06 rev/day^2
Epoch rev: 07315
Checksum: 286
Satellite: MET-3/5
Catalog number: 21655
Epoch time: 12005.89355670
Element set: 303
Inclination: 082.5583 deg
RA of node: 267.5477 deg
Eccentricity: 0.0014015
Arg of perigee: 015.7692 deg
Mean anomaly: 344.3810 deg
Mean motion: 13.17036213 rev/day
Decay rate: 5.1e-07 rev/day^2
Epoch rev: 98040
Checksum: 282
Satellite: MET-2/21
Catalog number: 22782
Epoch time: 12005.87620363
Element set: 302
Inclination: 082.5466 deg
RA of node: 162.0757 deg
Eccentricity: 0.0021173
Arg of perigee: 249.5933 deg
Mean anomaly: 110.2956 deg
Mean motion: 13.83673117 rev/day
Decay rate: 1.23e-06 rev/day^2
Epoch rev: 92658
Checksum: 292
Satellite: OKEAN-4
Catalog number: 23317
Epoch time: 12005.88773247
Element set: 768
Inclination: 082.5390 deg
RA of node: 183.8172 deg
Eccentricity: 0.0021691
Arg of perigee: 166.5899 deg
Mean anomaly: 193.5897 deg
Mean motion: 14.83506801 rev/day
Decay rate: 1.180e-05 rev/day^2
Epoch rev: 93059
Checksum: 338
Satellite: NOAA-14
Catalog number: 23455
Epoch time: 12004.93933480
Element set: 0757
Inclination: 098.8380 deg
RA of node: 090.4443 deg
Eccentricity: 0.0010189
Arg of perigee: 067.8936 deg
Mean anomaly: 292.3313 deg
Mean motion: 14.13868342 rev/day
Decay rate: 7.3e-07 rev/day^2
Epoch rev: 87758
Checksum: 326
Satellite: NOAA-15
Catalog number: 25338
Epoch time: 12004.89893955
Element set: 0089
Inclination: 098.6752 deg
RA of node: 353.4957 deg
Eccentricity: 0.0010021
Arg of perigee: 223.4241 deg
Mean anomaly: 136.6140 deg
Mean motion: 14.25015777 rev/day
Decay rate: 2.59e-06 rev/day^2
Epoch rev: 70945
Checksum: 313
Satellite: RESURS
Catalog number: 25394
Epoch time: 12004.94374024
Element set: 0995
Inclination: 098.3078 deg
RA of node: 001.9389 deg
Eccentricity: 0.0002035
Arg of perigee: 026.1349 deg
Mean anomaly: 333.9935 deg
Mean motion: 14.24267446 rev/day
Decay rate: 5.9e-07 rev/day^2
Epoch rev: 70102
Checksum: 295
Satellite: FENGYUN1
Catalog number: 25730
Epoch time: 12005.92860554
Element set: 508
Inclination: 098.8329 deg
RA of node: 327.8982 deg
Eccentricity: 0.0021276
Arg of perigee: 107.5276 deg
Mean anomaly: 252.8221 deg
Mean motion: 14.09142155 rev/day
Decay rate: 8.20e-06 rev/day^2
Epoch rev: 65161
Checksum: 294
Satellite: OKEAN-0
Catalog number: 25860
Epoch time: 12004.92867223
Element set: 0532
Inclination: 097.9128 deg
RA of node: 331.1723 deg
Eccentricity: 0.0001914
Arg of perigee: 058.7137 deg
Mean anomaly: 301.4259 deg
Mean motion: 14.74042458 rev/day
Decay rate: 6.65e-06 rev/day^2
Epoch rev: 67037
Checksum: 292
Satellite: NOAA-16
Catalog number: 26536
Epoch time: 12004.86577434
Element set: 0572
Inclination: 099.1189 deg
RA of node: 044.2782 deg
Eccentricity: 0.0010643
Arg of perigee: 182.5685 deg
Mean anomaly: 177.5409 deg
Mean motion: 14.12694003 rev/day
Decay rate: 4.13e-06 rev/day^2
Epoch rev: 58183
Checksum: 313
Satellite: NOAA-17
Catalog number: 27453
Epoch time: 12004.79059876
Element set: 0552
Inclination: 098.3572 deg
RA of node: 039.9919 deg
Eccentricity: 0.0010779
Arg of perigee: 279.8387 deg
Mean anomaly: 080.1577 deg
Mean motion: 14.24377830 rev/day
Decay rate: 7.2e-07 rev/day^2
Epoch rev: 49535
Checksum: 354
Satellite: NOAA-18
Catalog number: 28654
Epoch time: 12004.76669861
Element set: 0027
Inclination: 099.0243 deg
RA of node: 321.6868 deg
Eccentricity: 0.0013646
Arg of perigee: 257.3690 deg
Mean anomaly: 102.5943 deg
Mean motion: 14.11586868 rev/day
Decay rate: 2.49e-06 rev/day^2
Epoch rev: 34136
Checksum: 326
Satellite: NOAA-19
Catalog number: 33591
Epoch time: 12004.80872612
Element set: 0216
Inclination: 098.8487 deg
RA of node: 306.7772 deg
Eccentricity: 0.0014725
Arg of perigee: 124.2508 deg
Mean anomaly: 236.0047 deg
Mean motion: 14.11276595 rev/day
Decay rate: 4.50e-06 rev/day^2
Epoch rev: 14982
Checksum: 304
/EX
SB KEPS @ AMSAT $ORB12005.M
Orbital Elements 12005.MISC
HR AMSAT ORBITAL ELEMENTS FOR MANNED AND MISCELLANEOUS SATELLITES
FROM WA5QGD FORT WORTH,TX January 5, 2012
Send Subscribe/unsubscribe to KEPS at http://www.amsat.org/mailman/listinfo/keps
BID: ORB12005.M
TO ALL RADIO AMATEURS BT
Satellite: HUBBLE
Catalog number: 20580
Epoch time: 12003.70530029
Element set: 917
Inclination: 028.4686 deg
RA of node: 146.0963 deg
Eccentricity: 0.0003477
Arg of perigee: 098.4410 deg
Mean anomaly: 261.6736 deg
Mean motion: 15.02058594 rev/day
Decay rate: 1.815e-05 rev/day^2
Epoch rev: 98982
Checksum: 303
Satellite: ISS
Catalog number: 25544
Epoch time: 12005.98401231
Element set: 763
Inclination: 051.6421 deg
RA of node: 220.8251 deg
Eccentricity: 0.0023624
Arg of perigee: 248.3985 deg
Mean anomaly: 253.1434 deg
Mean motion: 15.58958990 rev/day
Decay rate: 1.7180e-04 rev/day^2
Epoch rev: 75256
Checksum: 297
Satellite: CO-58
Catalog number: 28895
Epoch time: 12004.59303759
Element set: 0066
Inclination: 097.9381 deg
RA of node: 237.8819 deg
Eccentricity: 0.0017271
Arg of perigee: 311.3241 deg
Mean anomaly: 048.6502 deg
Mean motion: 14.60427769 rev/day
Decay rate: 6.76e-06 rev/day^2
Epoch rev: 32963
Checksum: 336
Satellite: FALCON
Catalog number: 30776
Epoch time: 12005.87438044
Element set: 253
Inclination: 035.4317 deg
RA of node: 193.3982 deg
Eccentricity: 0.0002715
Arg of perigee: 010.9574 deg
Mean anomaly: 349.1202 deg
Mean motion: 15.06327489 rev/day
Decay rate: 3.788e-05 rev/day^2
Epoch rev: 26560
Checksum: 297
Satellite: MAST
Catalog number: 31126
Epoch time: 12004.96599936
Element set: 0363
Inclination: 097.8805 deg
RA of node: 025.6412 deg
Eccentricity: 0.0093026
Arg of perigee: 262.6133 deg
Mean anomaly: 096.4489 deg
Mean motion: 14.53995278 rev/day
Decay rate: 6.90e-06 rev/day^2
Epoch rev: 25040
Checksum: 316
Satellite: CAPE1
Catalog number: 31130
Epoch time: 12005.54978104
Element set: 362
Inclination: 097.8877 deg
RA of node: 022.6976 deg
Eccentricity: 0.0100799
Arg of perigee: 272.8379 deg
Mean anomaly: 086.1276 deg
Mean motion: 14.52718393 rev/day
Decay rate: 7.10e-06 rev/day^2
Epoch rev: 25001
Checksum: 306
Satellite: COMPASS
Catalog number: 32787
Epoch time: 12005.65873496
Element set: 188
Inclination: 097.8252 deg
RA of node: 070.5116 deg
Eccentricity: 0.0014540
Arg of perigee: 232.7658 deg
Mean anomaly: 127.2234 deg
Mean motion: 14.83357879 rev/day
Decay rate: 2.006e-05 rev/day^2
Epoch rev: 19956
Checksum: 322
Satellite: AAUSAT2
Catalog number: 32788
Epoch time: 12005.72823773
Element set: 179
Inclination: 097.8250 deg
RA of node: 070.8784 deg
Eccentricity: 0.0014012
Arg of perigee: 233.1459 deg
Mean anomaly: 126.8474 deg
Mean motion: 14.83623731 rev/day
Decay rate: 2.276e-05 rev/day^2
Epoch rev: 19959
Checksum: 322
Satellite: DO-64
Catalog number: 32789
Epoch time: 12004.70183141
Element set: 0195
Inclination: 097.8347 deg
RA of node: 071.3393 deg
Eccentricity: 0.0014188
Arg of perigee: 235.7128 deg
Mean anomaly: 124.2721 deg
Mean motion: 14.84669861 rev/day
Decay rate: 4.053e-05 rev/day^2
Epoch rev: 19946
Checksum: 322
Satellite: CO-66
Catalog number: 32791
Epoch time: 12004.84820969
Element set: 0186
Inclination: 097.8276 deg
RA of node: 069.5749 deg
Eccentricity: 0.0014789
Arg of perigee: 235.2182 deg
Mean anomaly: 124.7611 deg
Mean motion: 14.82885380 rev/day
Decay rate: 1.471e-05 rev/day^2
Epoch rev: 19938
Checksum: 354
Satellite: RS-30
Catalog number: 32953
Epoch time: 12005.57660263
Element set: 407
Inclination: 082.5009 deg
RA of node: 036.8820 deg
Eccentricity: 0.0017766
Arg of perigee: 308.0602 deg
Mean anomaly: 051.8878 deg
Mean motion: 12.43019456 rev/day
Decay rate: 1.0e-07 rev/day^2
Epoch rev: 16423
Checksum: 276
Satellite: TACSAT-3
Catalog number: 35001
Epoch time: 12004.47116260
Element set: 0830
Inclination: 040.4515 deg
RA of node: 019.4920 deg
Eccentricity: 0.0006009
Arg of perigee: 229.5406 deg
Mean anomaly: 130.4897 deg
Mean motion: 15.66981221 rev/day
Decay rate: 7.9615e-04 rev/day^2
Epoch rev: 14842
Checksum: 272
Satellite: PHARMSAT
Catalog number: 35002
Epoch time: 12004.42047042
Element set: 0767
Inclination: 040.4681 deg
RA of node: 021.2838 deg
Eccentricity: 0.0010560
Arg of perigee: 280.6576 deg
Mean anomaly: 079.3052 deg
Mean motion: 15.61397965 rev/day
Decay rate: 4.6047e-04 rev/day^2
Epoch rev: 14840
Checksum: 276
Satellite: HAWKSAT1
Catalog number: 35003
Epoch time: 11276.79285837
Element set: 811
Inclination: 040.4398 deg
RA of node: 174.3672 deg
Eccentricity: 0.0011414
Arg of perigee: 274.3918 deg
Mean anomaly: 085.3844 deg
Mean motion: 16.13812532 rev/day
Decay rate: 2.274821e-02 rev/day^2
Epoch rev: 13457
Checksum: 306
Satellite: CP6
Catalog number: 35004
Epoch time: 11247.64656856
Element set: 784
Inclination: 040.4403 deg
RA of node: 342.9642 deg
Eccentricity: 0.0002956
Arg of perigee: 038.0069 deg
Mean anomaly: 322.2231 deg
Mean motion: 16.41039951 rev/day
Decay rate: 1.6152067e-01 rev/day^2
Epoch rev: 13013
Checksum: 285
Satellite: METEOR-M
Catalog number: 35865
Epoch time: 12005.74947673
Element set: 41
Inclination: 098.6796 deg
RA of node: 062.9573 deg
Eccentricity: 0.0002531
Arg of perigee: 148.9326 deg
Mean anomaly: 211.1997 deg
Mean motion: 14.21852991 rev/day
Decay rate: -1.0e-08 rev/day^2
Epoch rev: 11937
Checksum: 315
Satellite: RS-38
Catalog number: 35869
Epoch time: 12005.93461897
Element set: 34
Inclination: 098.6762 deg
RA of node: 063.1586 deg
Eccentricity: 0.0004698
Arg of perigee: 155.4697 deg
Mean anomaly: 204.6706 deg
Mean motion: 14.22048168 rev/day
Decay rate: 4.0e-07 rev/day^2
Epoch rev: 11941
Checksum: 327
